Theta_e
320 320 320 320 319 319 318 318 317 317 317 318 318 318 318 318 317 317 317 318 320 321 323 323 324 326 316 304 305 310 335 327 311 310 306 303 298 297 293 295 297 295 297 301 301 301 301
320 319 319 320 319 318 318 318 318 318 317 317 318 318 317 317 316 316 317 318 320 321 322 323 324 324 308 293 308 310 313 309 309 308 305 303 300 300 295 295 293 297 298 298 300 299 299
319 320 319 318 318 318 319 318 318 317 317 317 317 317 317 316 317 316 317 318 319 320 321 324 325 321 306 301 307 307 310 307 308 308 305 305 304 299 298 295 298 297 293 294 295 297 297
319 318 318 318 318 317 317 317 316 316 316 316 317 317 316 316 316 316 318 319 320 321 322 325 325 313 299 312 305 307 307 306 308 308 308 306 305 302 298 298 297 292 290 288 295 297 297
317 317 317 317 317 316 316 315 315 315 315 315 315 315 315 315 316 317 318 319 322 322 325 325 311 307 297 313 304 306 305 305 306 306 306 310 304 298 298 291 288 289 285 287 291 296 296
315 314 314 314 314 314 314 314 313 313 313 314 314 314 315 315 316 318 319 320 323 322 318 321 317 298 302 301 306 307 304 306 303 303 301 301 296 292 291 289 283 285 284 286 287 293 294
314 314 313 313 313 313 313 313 313 313 313 313 313 314 314 315 316 317 314 309 306 307 307 303 303 301 304 308 307 302 305 303 302 298 290 295 290 286 288 291 291 289 286 285 289 294 291
313 313 313 313 313 313 313 313 313 313 313 313 312 314 314 314 315 316 311 305 305 306 297 308 307 305 307 305 301 301 304 297 296 291 293 291 288 293 294 294 292 290 286 286 290 293 289
313 313 313 313 313 313 313 312 312 313 312 312 312 313 313 314 315 306 305 304 311 312 298 304 305 303 303 304 300 298 301 297 294 291 290 287 292 297 295 291 289 287 285 285 286 291 290
314 314 313 313 313 312 312 312 312 312 312 313 313 313 312 314 303 302 302 305 306 311 290 296 301 303 304 305 298 304 303 299 294 290 291 290 294 294 291 291 291 285 292 292 290 286 281
312 312 312 312 311 311 311 311 311 311 313 312 312 313 313 314 301 300 303 304 306 305 282 297 299 306 302 300 298 299 303 298 292 292 291 290 291 291 291 292 293 290 294 291 290 285 284
311 311 311 311 311 311 311 311 311 312 312 312 312 312 313 307 302 304 304 306 306 288 283 294 299 297 296 297 297 300 298 299 298 294 292 292 296 293 292 294 294 295 290 290 287 285 281
311 311 311 311 311 310 310 311 311 311 312 312 312 312 311 308 299 303 307 304 288 283 294 293 294 297 295 293 294 295 293 291 288 285 285 290 291 293 294 290 293 291 285 281 281 281 282
311 310 310 311 311 310 310 310 311 311 312 311 311 311 308 309 306 304 305 291 283 292 291 298 297 296 292 293 292 293 291 288 293 289 285 284 284 289 293 290 287 287 286 282 278 278 281
310 310 311 310 310 310 310 310 311 311 311 311 309 300 298 300 301 306 294 285 285 290 295 294 295 288 289 293 290 291 290 291 293 294 285 284 285 291 293 292 290 287 284 287 283 281 280
309 309 310 310 310 309 310 309 310 311 311 310 297 297 297 301 300 301 291 290 291 296 296 296 289 291 287 290 290 289 290 294 294 296 294 288 283 289 292 292 291 288 290 284 283 277 277
309 309 310 309 309 309 309 309 309 310 310 308 296 292 297 299 300 294 287 288 294 298 297 293 291 291 290 290 289 288 290 293 295 295 295 290 285 286 289 287 286 287 284 285 285 283 279
309 309 309 309 309 308 309 309 309 310 309 301 291 286 297 298 291 288 287 292 297 295 296 295 295 293 290 290 289 290 290 292 297 295 290 292 287 282 286 289 290 288 286 286 282 281 281
308 308 308 308 308 308 309 308 309 309 309 297 289 288 295 294 284 284 291 294 292 293 291 292 290 292 292 289 286 292 292 296 296 293 289 291 286 281 282 287 290 288 289 289 286 284 281
308 308 308 308 308 308 309 309 309 309 309 297 287 283 288 288 286 284 285 286 289 291 290 291 288 289 287 287 288 287 287 292 294 293 298 296 287 284 279 283 287 285 289 290 287 281 281
307 307 307 308 307 307 308 309 309 309 308 294 288 284 286 281 284 283 285 286 285 284 289 289 286 286 284 282 283 283 285 286 291 292 289 286 281 284 285 285 286 286 286 287 285 286 283
307 307 307 307 307 307 307 308 308 308 305 291 285 285 287 283 284 283 284 283 284 285 286 284 283 285 285 282 282 280 283 283 283 285 284 284 280 281 280 284 283 283 285 285 286 286 286
306 307 306 306 307 306 307 308 308 308 301 290 290 291 286 284 281 280 280 283 285 285 286 287 285 283 282 285 286 286 286 286 286 282 281 281 280 277 275 280 281 279 281 282 281 282 282
305 306 306 306 306 306 307 307 307 308 302 292 291 289 284 280 282 282 285 285 284 285 283 286 285 283 287 289 288 286 283 284 284 284 285 280 278 278 275 277 271 280 286 286 282 282 283
304 305 305 306 306 305 306 307 307 307 306 295 293 290 284 279 282 284 285 284 284 284 283 284 287 287 288 286 281 279 278 280 282 284 283 284 280 276 273 273 278 281 283 282 281 281 285
304 304 304 305 305 305 305 306 306 306 306 296 295 294 288 282 281 287 284 284 280 279 281 285 288 288 287 283 280 275 274 276 276 279 284 283 282 278 274 273 273 278 283 287 287 278 285
304 304 304 303 304 304 305 305 306 306 306 297 295 296 289 283 286 286 283 282 285 281 279 281 285 285 286 280 278 275 274 280 275 275 276 278 279 275 275 275 277 282 284 286 278 279 285
304 303 304 305 305 304 305 305 305 305 305 298 294 297 291 284 286 290 291 285 285 283 279 282 280 282 280 278 279 278 278 278 276 278 278 276 275 275 276 276 275 287 285 279 281 283 284
304 304 304 304 305 305 305 305 305 305 305 300 292 297 296 288 285 292 293 293 292 290 285 284 282 282 283 279 277 277 274 273 275 269 279 274 278 274 276 277 283 284 284 286 286 284 284
Wind_Speed
11 10 11 12 13 15 14 15 16 16 17 19 19 20 21 22 23 24 24 23 22 20 18 16 14 12 2 1 6 2 3 4 4 2 3 2 4 2 1 4 6 4 3 5 5 8 4
10 10 11 12 14 14 15 15 16 17 18 19 20 21 22 23 25 25 25 23 22 20 18 15 11 6 0 0 3 5 4 1 3 1 4 4 2 3 1 2 1 3 4 8 7 6 5
11 12 12 13 14 15 15 15 17 18 19 20 22 23 24 25 25 26 26 24 22 20 17 13 7 3 2 7 3 4 4 2 1 1 2 1 2 4 1 5 3 4 6 8 5 3 4
11 12 13 14 15 15 16 17 18 19 20 21 23 24 26 26 27 28 27 24 22 17 12 7 3 2 4 4 2 2 1 3 4 1 1 2 3 1 2 3 8 4 4 6 7 3 2
11 12 13 14 15 16 17 19 19 20 21 22 23 25 27 27 27 28 27 25 15 4 3 7 2 0 3 8 2 3 1 1 3 3 3 1 3 1 6 3 5 6 1 2 9 3 2
12 12 13 14 15 16 18 19 19 20 21 22 24 24 25 27 27 28 26 18 2 2 1 3 2 2 3 1 3 4 1 1 2 1 5 4 5 3 4 5 3 3 2 3 5 5 1
11 12 13 14 15 16 17 19 20 21 22 23 24 24 25 27 27 29 13 4 7 5 8 2 3 2 3 7 2 2 3 2 3 6 0 3 5 3 6 5 5 3 3 3 5 2 3
11 12 13 14 15 17 18 20 21 22 23 24 25 25 25 26 24 25 2 6 2 4 4 3 4 4 4 1 4 3 3 2 2 2 1 5 5 9 6 4 4 4 2 5 6 3 2
10 11 13 15 16 18 19 20 21 22 24 25 26 26 26 24 24 5 7 5 3 2 1 6 3 2 0 1 1 3 2 1 3 2 2 5 7 2 4 2 2 3 3 3 3 6 3
13 13 14 16 17 19 20 21 22 24 25 25 25 25 25 25 5 5 3 7 5 2 5 6 2 1 2 1 2 1 2 2 2 3 2 5 4 3 1 3 3 3 2 1 1 5 2
12 13 15 17 18 20 21 22 23 24 24 25 25 23 21 11 2 3 5 6 5 4 5 2 1 1 1 1 2 1 2 3 3 4 5 7 1 1 2 4 1 6 1 2 3 2 3
13 14 16 17 18 20 21 22 24 24 25 26 26 22 15 1 2 5 5 4 4 4 2 3 1 2 4 1 2 1 3 4 0 2 1 7 4 2 5 2 2 2 3 6 5 3 2
12 14 16 17 18 20 21 23 24 26 26 27 26 22 7 0 3 4 4 3 5 7 4 6 3 6 5 3 2 3 2 6 3 4 5 6 1 2 1 3 3 6 6 3 3 3 5
12 15 16 17 18 20 22 24 25 26 27 28 25 14 1 3 4 3 3 4 7 1 3 4 3 6 3 5 2 1 4 4 5 5 2 3 6 2 2 1 2 1 5 5 3 2 3
12 14 16 18 19 21 23 25 25 27 27 27 15 4 3 4 4 3 5 8 2 2 4 6 6 4 6 6 4 5 5 4 3 7 2 3 5 3 1 1 3 1 0 3 2 2 3
12 14 16 18 20 22 24 26 27 28 29 24 2 3 5 6 2 4 6 5 3 4 4 3 3 4 4 6 5 5 4 4 5 3 3 2 5 2 3 2 0 3 2 1 3 2 2
11 13 15 18 20 22 24 26 29 29 29 19 4 4 5 12 3 7 5 2 4 3 6 4 4 3 3 4 3 3 2 2 3 7 3 1 2 7 3 0 2 3 2 1 3 4 4
11 12 15 17 20 22 24 26 28 28 26 9 3 4 5 7 7 3 3 3 3 6 6 6 4 5 3 5 4 2 3 3 7 3 4 1 2 4 7 5 4 1 1 3 5 3 1
10 12 15 17 19 21 23 26 26 25 20 2 3 2 5 5 5 3 3 4 6 7 7 6 6 5 5 4 4 4 3 5 8 5 3 4 2 4 7 6 6 5 3 3 2 2 3
10 12 13 15 18 20 21 23 25 26 22 5 4 4 7 7 2 4 3 5 3 8 5 4 6 6 5 6 6 4 6 4 8 7 10 1 1 4 4 1 4 6 8 5 2 2 1
8 10 12 14 16 18 20 22 25 26 22 4 4 1 2 4 7 6 5 5 4 6 6 12 5 7 4 3 6 5 6 7 5 11 6 5 3 4 4 6 4 7 10 9 4 5 3
6 8 10 13 15 18 20 22 24 27 14 7 4 3 4 2 3 7 8 6 5 5 6 5 4 5 6 4 1 5 5 2 4 6 5 7 4 5 4 6 6 3 7 8 4 5 3
5 6 8 11 13 16 18 19 22 26 12 5 3 3 4 7 4 5 2 3 4 3 1 4 1 3 3 2 5 9 10 9 8 3 4 3 1 3 5 6 8 3 9 8 10 11 4
4 5 7 9 11 14 16 18 20 20 11 3 1 2 4 3 5 3 2 3 5 4 2 4 2 3 3 6 7 6 5 10 8 11 8 3 1 1 4 5 3 5 8 10 13 7 7
3 4 5 6 8 11 13 15 17 19 15 4 2 4 3 3 0 6 7 2 4 5 5 2 4 3 6 5 5 6 5 2 2 6 9 10 5 3 1 2 2 1 6 3 3 3 3
1 2 3 4 6 8 10 13 15 17 16 5 3 2 4 5 3 3 3 3 1 3 6 4 4 5 5 3 3 3 2 3 5 9 7 5 3 2 1 1 3 2 6 9 2 6 3
2 1 2 2 4 5 7 10 13 14 15 4 2 3 4 4 3 2 2 1 1 2 1 4 6 7 4 3 2 1 3 3 2 4 4 3 2 5 6 4 2 3 5 7 6 1 4
3 1 0 2 3 2 4 8 9 11 13 5 1 5 4 2 4 1 1 2 1 2 2 4 4 4 4 4 2 2 2 2 2 3 2 1 2 1 1 3 4 4 2 2 6 4 3
5 3 2 1 3 1 2 5 7 7 9 5 3 3 2 3 4 2 6 8 7 6 5 1 4 1 3 3 2 1 2 3 1 3 5 3 3 4 7 6 2 4 5 7 4 5 3
Wind_Direction
50 43 36 27 19 13 11 7 1 355 353 349 345 342 338 334 331 327 325 322 318 315 314 314 318 328 340 9 257 223 197 268 293 345 354 335 55 59 356 301 335 194 274 300 279 293 281
42 32 27 20 11 7 5 1 354 352 350 346 342 340 336 332 328 326 324 320 316 312 309 308 309 323 309 297 252 166 195 250 270 78 14 56 134 213 215 286 189 302 282 286 294 281 281
40 37 27 13 5 359 357 355 352 350 346 343 340 338 335 331 326 326 323 318 313 305 302 297 289 241 87 219 330 203 193 247 246 73 66 54 129 60 11 322 287 287 316 310 267 235 240
35 24 15 9 2 357 355 352 351 348 345 341 339 336 334 330 327 326 322 316 310 301 293 277 206 189 233 265 266 271 1 314 312 342 141 190 91 103 170 285 357 9 40 3 301 93 278
29 20 16 12 5 359 355 352 350 347 343 340 337 335 333 330 327 325 322 318 317 312 157 128 127 187 305 313 92 311 330 221 285 309 308 23 60 63 14 62 8 13 302 297 319 320 88
32 21 16 13 6 360 357 354 352 348 344 341 337 334 331 328 329 325 323 320 328 95 143 198 257 33 340 355 317 332 269 156 56 41 6 34 43 42 34 65 223 266 314 292 256 310 43
29 22 18 13 8 3 358 354 351 348 346 343 339 335 331 330 330 324 339 15 17 3 38 59 299 282 316 301 279 315 305 68 40 50 27 352 46 256 257 200 217 226 223 259 259 249 353
28 20 16 9 6 1 356 353 349 347 345 341 338 335 332 330 328 320 356 70 148 208 327 315 254 273 253 268 355 300 112 84 88 236 15 18 245 249 229 226 230 243 302 295 291 322 87
20 12 12 5 5 358 355 351 349 346 343 340 337 335 333 329 321 353 61 52 341 123 76 315 278 298 303 80 270 269 111 122 208 261 198 173 240 169 199 282 297 270 218 252 236 326 12
23 21 11 8 0 356 352 349 347 344 339 335 334 336 336 331 40 320 59 323 351 163 82 329 9 322 355 126 335 299 21 120 343 252 282 231 282 207 247 266 145 290 184 114 346 51 244
24 18 10 3 359 356 352 349 346 342 338 335 335 336 340 347 249 50 288 327 327 58 69 302 311 243 328 359 280 294 347 52 244 283 68 262 238 227 308 244 170 234 288 245 197 111 28
25 17 9 2 360 358 353 350 347 343 338 336 335 334 341 26 10 241 313 317 55 49 75 337 7 358 357 241 269 29 37 35 308 298 224 241 288 220 216 280 245 350 19 34 52 96 15
22 14 5 2 1 357 353 350 348 346 340 337 334 329 329 257 278 318 332 56 42 83 328 333 342 6 341 277 268 185 71 24 48 21 359 330 281 335 68 343 22 64 48 341 358 13 215
21 9 5 4 1 357 353 351 349 347 343 339 332 326 315 221 273 332 48 55 75 68 318 347 343 311 216 355 311 355 63 29 6 27 53 40 332 357 18 140 256 244 142 158 269 217 271
20 12 9 3 2 359 356 352 349 348 345 343 336 339 328 266 293 91 76 53 119 342 301 326 323 50 350 356 21 68 49 11 19 1 78 32 273 311 199 326 111 360 258 193 122 7 60
21 12 7 5 1 0 358 354 351 350 347 344 24 355 284 317 2 68 70 120 102 22 325 340 31 27 36 330 29 34 18 324 329 359 352 331 306 279 292 11 77 195 227 352 12 235 231
29 20 12 6 1 0 359 357 353 351 347 342 45 41 267 338 69 49 90 98 103 44 24 19 15 9 360 360 315 27 348 300 329 312 58 16 137 288 342 213 232 354 310 72 128 140 179
31 26 13 11 5 1 0 358 355 350 349 41 13 46 305 345 51 34 63 63 23 356 359 18 73 26 9 346 347 59 117 357 331 317 345 2 153 259 243 286 306 246 211 116 122 253 147
24 25 17 12 7 5 1 357 354 349 3 353 51 284 326 43 84 26 39 65 61 21 17 14 21 16 2 343 353 39 69 8 350 19 38 338 323 329 340 355 358 40 20 26 113 73 219
18 20 18 17 11 6 1 357 353 351 357 92 64 24 337 37 25 82 54 27 74 31 62 49 19 41 359 16 8 24 4 343 333 1 21 78 252 205 218 17 354 318 339 355 78 99 265
22 15 13 17 16 10 5 3 355 353 351 85 36 58 192 4 2 37 62 34 20 12 5 21 42 35 345 339 351 27 5 325 2 355 18 57 297 322 306 278 249 266 279 287 259 235 157
25 15 12 14 18 13 8 7 3 359 5 74 88 65 7 23 4 47 27 6 37 354 18 37 58 345 40 59 42 297 6 291 265 352 29 352 297 356 287 337 314 235 7 331 307 311 228
30 28 13 19 21 19 15 13 12 8 22 75 345 14 96 339 21 68 22 20 34 16 69 98 34 15 346 266 259 254 230 236 253 314 345 303 281 23 272 327 312 52 338 65 75 32 55
55 41 21 21 24 23 21 21 20 22 44 92 8 96 71 26 57 39 58 71 34 359 291 344 39 20 286 301 289 277 236 236 225 239 188 233 125 221 269 349 239 145 49 85 76 56 60
70 40 20 28 28 26 24 25 25 25 32 71 356 74 77 83 128 30 39 8 16 360 17 52 346 295 300 344 352 340 346 26 323 227 201 200 139 269 227 252 109 30 11 323 290 126 8
90 89 39 37 30 28 28 26 28 27 27 65 26 86 84 113 315 298 81 27 63 350 349 328 312 320 33 51 25 12 335 328 334 338 27 116 92 162 105 230 250 36 278 305 153 217 320
145 109 46 20 19 23 28 30 31 30 29 68 12 26 78 94 275 50 116 160 114 56 241 303 327 350 30 34 9 340 298 303 331 354 325 352 18 211 243 245 271 256 294 314 185 10 359
194 166 44 21 346 354 35 33 31 32 28 57 318 12 95 111 282 289 83 142 59 114 159 274 19 348 19 47 24 324 318 314 324 291 310 293 316 293 302 249 243 268 53 20 239 319 265
207 183 176 153 3 123 49 32 27 32 36 61 40 344 41 113 235 293 250 226 191 192 149 300 184 221 215 80 23 32 314 347 141 269 317 279 183 213 178 235 248 165 198 264 254 239 277